Вернуться в каталог

STARLINK-34253

АктивенСвязьVLEO
NORAD 64685·PAYLOAD·🇺🇸 United States

Запущен Jun 28, 2025 с Cape Canaveral Space Force Station

Loading…

Ближайшие Пролёты (ближайшие 24 часа)

TLE

СвежийSource: CelesTrak SupGP

Эпоха: Sep 15, 2026, 02:24 UTC

1 64685C 25139X   26258.10048611  .00057029  00000+0  16846-2 0  2580
2 64685  53.1592 323.2797 0001212  95.5722 119.4083 15.34368247    15

Отслеживайте STARLINK-34253 в реальном времени с AllMySat

Download on the App Store